Retour au catalogue

STARLINK-37212

ActifCommunicationsVLEO
NORAD 68566·PAYLOAD·🇺🇸 United States

Lancé Apr 2, 2026 depuis Cape Canaveral Space Force Station

Loading…

Prochains Passages (prochaines 24 heures)

TLE

FraisSource: CelesTrak SupGP

Époque: Sep 14, 2026, 23:21 UTC

1 68566C 26070AA  26257.97340278 -.00029675  00000+0 -87636-3 0  2578
2 68566  53.1588 199.2268 0001398  85.6239 262.5809 15.34419096    19

Suivez STARLINK-37212 en temps réel avec AllMySat

Download on the App Store